SQ9NFI-4 Weather Reports


Display with metric or nautical units.
time (UTC)temp
F
wind
direction
speed
MPH
gust
MPH
rain 1hr
in
rain 24hr
in
rain mn
in
humidity
%
barometer
mb
20260505234937 53 342 0.0 1.0 0.00 0.00 0.00 81 1007.5
20260505234437 53 341 0.0 0.0 0.00 0.00 0.00 77 1007.5
20260505233937 53 339 0.0 0.0 0.00 0.00 0.00 79 1007.5
20260505233437 53 341 0.0 0.0 0.00 0.00 0.00 79 1007.5
20260505232937 53 341 0.0 0.0 0.00 0.00 0.00 79 1007.5
20260505232437 53 343 0.0 0.0 0.00 0.00 0.00 77 1007.8
20260505231937 53 329 0.0 0.0 0.00 0.00 0.00 79 1007.8
20260505231437 52 338 0.0 0.0 0.00 0.00 0.00 79 1007.8
20260505230937 52 339 0.0 0.0 0.00 0.00 0.00 81 1007.8
20260505230437 52 342 0.0 1.0 0.00 0.00 0.00 82 1007.8
20260505225937 51 329 0.0 0.0 0.00 0.00 0.00 81 1007.8
20260505225437 51 345 0.0 0.0 0.00 0.00 0.00 79 1007.8
20260505224937 51 329 0.0 0.0 0.00 0.00 0.00 82 1007.8
20260505224437 51 329 0.0 0.0 0.00 0.00 0.00 79 1007.8
20260505223937 51 342 0.0 0.0 0.00 0.00 0.00 78 1007.8
20260505223437 52 345 0.0 1.0 0.00 0.00 0.00 79 1008.1
20260505222937 52 25 2.0 2.0 0.00 0.00 0.00 78 1008.1
20260505222437 52 22 3.0 3.0 0.00 0.00 0.00 75 1008.1
20260505221937 51 336 1.0 2.0 0.00 0.00 0.00 77 1008.1
20260505221437 51 332 0.0 0.0 0.00 0.00 0.00 77 1008.1
20260505220937 51 318 0.0 0.0 0.00 0.00 0.00 79 1008.1
20260505220437 51 329 0.0 0.0 0.00 0.00 0.00 79 1008.1
20260505215937 51 329 0.0 0.0 0.00 0.00 0.00 80 1008.5
20260505215437 52 333 0.0 0.0 0.00 0.00 0.00 78 1008.5
20260505214937 52 334 0.0 0.0 0.00 0.00 0.00 75 1008.5
20260505214437 53 344 0.0 0.0 0.00 0.00 0.00 72 1008.1
20260505213937 53 338 0.0 0.0 0.00 0.00 0.00 69 1008.1
20260505213437 53 338 0.0 0.0 0.00 0.00 0.00 70 1008.1
20260505212937 53 336 0.0 0.0 0.00 0.00 0.00 69 1008.1
20260505212437 53 345 0.0 0.0 0.00 0.00 0.00 66 1008.5
20260505211937 53 335 0.0 0.0 0.00 0.00 0.00 74 1008.5
20260505211437 54 336 1.0 1.0 0.00 0.00 0.00 68 1008.5
20260505210937 54 339 0.0 0.0 0.00 0.00 0.00 65 1008.5
20260505210437 54 339 0.0 0.0 0.00 0.00 0.00 72 1008.5
20260505205937 54 339 0.0 1.0 0.00 0.00 0.00 65 1008.5
20260505205437 55 344 1.0 2.0 0.00 0.00 0.00 63 1008.5
20260505204937 55 338 1.0 1.0 0.00 0.00 0.00 66 1008.5
20260505204437 55 348 1.0 1.0 0.00 0.00 0.00 63 1008.5
20260505203937 55 347 2.0 3.0 0.00 0.00 0.00 61 1008.5
20260505203437 55 337 0.0 1.0 0.00 0.00 0.00 65 1008.5
20260505202937 55 333 0.0 1.0 0.00 0.00 0.00 61 1008.5
20260505202437 55 335 1.0 2.0 0.00 0.00 0.00 67 1008.5
20260505201937 55 338 0.0 0.0 0.00 0.00 0.00 60 1008.5
20260505201437 56 338 1.0 1.0 0.00 0.00 0.00 61 1008.5
20260505200937 56 330 1.0 1.0 0.00 0.00 0.00 59 1008.5
20260505200437 56 315 1.0 1.0 0.00 0.00 0.00 67 1008.5
20260505195937 56 333 0.0 0.0 0.00 0.00 0.00 62 1008.5
20260505192937 58 332 1.0 1.0 0.00 0.00 0.00 62 1008.1
20260505175437 73 303 2.0 2.0 0.00 0.00 0.00 24 1007.8
20260505165937 79 241 4.0 8.0 0.00 0.00 0.00 18 1007.8
20260505165437 79 190 13.0 13.0 0.00 0.00 0.00 17 1007.8
20260505164937 80 199 8.0 11.0 0.00 0.00 0.00 18 1007.8
20260505164437 80 260 4.0 7.0 0.00 0.00 0.00 18 1007.8
20260505163937 80 321 5.0 6.0 0.00 0.00 0.00 18 1007.8
20260505163437 80 205 5.0 7.0 0.00 0.00 0.00 18 1007.8
20260505162937 80 208 11.0 11.0 0.00 0.00 0.00 16 1007.8
20260505162437 81 300 6.0 9.0 0.00 0.00 0.00 16 1007.8
20260505161937 81 246 6.0 16.0 0.00 0.00 0.00 14 1007.8
20260505161437 82 303 6.0 9.0 0.00 0.00 0.00 14 1007.8
20260505160937 82 192 15.0 24.0 0.00 0.00 0.00 13 1007.8
20260505160437 82 236 10.0 15.0 0.00 0.00 0.00 13 1007.8
20260505152937 83 230 4.0 6.0 0.00 0.00 0.00 18 1007.8
20260505152437 82 187 8.0 10.0 0.00 0.00 0.00 17 1007.8
20260505151937 83 212 7.0 7.0 0.00 0.00 0.00 19 1007.8
20260505151437 83 267 7.0 8.0 0.00 0.00 0.00 18 1007.8
20260505150937 83 258 8.0 27.0 0.00 0.00 0.00 18 1007.8
20260505150437 83 301 3.0 6.0 0.00 0.00 0.00 19 1007.8
20260505140437 83 286 4.0 9.0 0.00 0.00 0.00 19 1008.5
20260505124937 81 225 9.0 10.0 0.00 0.00 0.00 20 1008.8
20260505124437 81 204 7.0 14.0 0.00 0.00 0.00 20 1009.1
20260505123937 80 208 10.0 14.0 0.00 0.00 0.00 19 1009.1
20260505123437 80 268 11.0 17.0 0.00 0.00 0.00 21 1008.8
20260505122937 81 286 9.0 9.0 0.00 0.00 0.00 20 1008.8
20260505122437 82 274 7.0 10.0 0.00 0.00 0.00 20 1008.8
20260505121937 82 184 10.0 24.0 0.00 0.00 0.00 19 1008.8
20260505121437 82 225 8.0 12.0 0.00 0.00 0.00 19 1008.8
20260505120937 82 186 16.0 16.0 0.00 0.00 0.00 17 1009.1
20260505120437 82 214 6.0 9.0 0.00 0.00 0.00 18 1009.1
20260505115937 83 243 8.0 14.0 0.00 0.00 0.00 16 1009.1
20260505115437 83 303 14.0 14.0 0.00 0.00 0.00 17 1009.1
20260505114937 83 238 7.0 8.0 0.00 0.00 0.00 17 1009.1
20260505114437 84 266 4.0 8.0 0.00 0.00 0.00 19 1008.8
20260505113937 84 282 11.0 21.0 0.00 0.00 0.00 17 1008.8
20260505113437 84 223 14.0 16.0 0.00 0.00 0.00 18 1008.8
20260505112937 84 298 5.0 6.0 0.00 0.00 0.00 21 1008.8
20260505112437 84 325 6.0 9.0 0.00 0.00 0.00 21 1009.1
20260505111937 84 132 12.0 17.0 0.00 0.00 0.00 20 1009.1
20260505111437 84 218 7.0 8.0 0.00 0.00 0.00 19 1009.1
20260505110937 85 284 6.0 8.0 0.00 0.00 0.00 22 1009.5
20260505110437 83 270 7.0 9.0 0.00 0.00 0.00 22 1009.5
20260505101937 81 146 12.0 15.0 0.00 0.00 0.00 22 1009.5
20260505101437 82 201 13.0 13.0 0.00 0.00 0.00 22 1009.5
20260505100937 82 65 10.0 12.0 0.00 0.00 0.00 24 1009.8
20260505100437 81 282 11.0 11.0 0.00 0.00 0.00 23 1009.8
20260505095937 82 180 9.0 11.0 0.00 0.00 0.00 24 1009.8
20260505095437 80 170 16.0 20.0 0.00 0.00 0.00 23 1009.8
20260505094937 82 222 4.0 10.0 0.00 0.00 0.00 25 1009.8
20260505094437 80 169 13.0 17.0 0.00 0.00 0.00 23 1010.5
20260505093937 81 170 17.0 17.0 0.00 0.00 0.00 24 1010.5
20260505093437 80 150 5.0 6.0 0.00 0.00 0.00 23 1010.8
20260505092937 80 172 16.0 16.0 0.00 0.00 0.00 24 1010.8
20260505092436 80 196 10.0 21.0 0.00 0.00 0.00 26 1010.8
20260505092039 78 188 15.0 19.0 0.00 0.00 0.00 24 1010.8
20260505091539 79 223 6.0 13.0 0.00 0.00 0.00 25 1010.8
20260505091039 78 207 19.0 21.0 0.00 0.00 0.00 26 1010.8
20260505090539 78 176 19.0 19.0 0.00 0.00 0.00 26 1010.8
20260505090039 78 167 6.0 14.0 0.00 0.00 0.00 26 1011.2
20260505085539 77 199 13.0 16.0 0.00 0.00 0.00 26 1011.2
20260505085039 77 203 19.0 19.0 0.00 0.00 0.00 25 1011.2
20260505084539 78 105 17.0 17.0 0.00 0.00 0.00 25 1011.2
20260505084039 78 165 6.0 16.0 0.00 0.00 0.00 26 1011.2
20260505083539 77 245 14.0 14.0 0.00 0.00 0.00 27 1011.2
20260505083039 78 189 10.0 10.0 0.00 0.00 0.00 27 1011.2
20260505082539 76 260 13.0 18.0 0.00 0.00 0.00 27 1011.2
20260505082039 76 171 9.0 11.0 0.00 0.00 0.00 28 1011.2
20260505081539 76 172 17.0 19.0 0.00 0.00 0.00 27 1011.2
20260505081039 78 91 7.0 10.0 0.00 0.00 0.00 27 1011.2
20260505080539 78 137 10.0 13.0 0.00 0.00 0.00 26 1011.2
20260505080039 77 199 11.0 15.0 0.00 0.00 0.00 26 1011.5
20260505075539 76 180 10.0 13.0 0.00 0.00 0.00 28 1011.5
20260505075039 77 167 10.0 15.0 0.00 0.00 0.00 28 1011.5
20260505074539 77 196 10.0 17.0 0.00 0.00 0.00 28 1011.5
20260505074039 76 159 9.0 13.0 0.00 0.00 0.00 27 1011.5
20260505073539 76 284 6.0 10.0 0.00 0.00 0.00 29 1011.5
20260505073039 76 242 5.0 5.0 0.00 0.00 0.00 31 1011.5
20260505072539 75 146 11.0 14.0 0.00 0.00 0.00 31 1011.5
20260505072039 75 172 8.0 13.0 0.00 0.00 0.00 31 1011.5
20260505071539 76 164 5.0 9.0 0.00 0.00 0.00 30 1011.5
20260505071039 74 168 6.0 9.0 0.00 0.00 0.00 32 1011.5
20260505070039 74 209 4.0 6.0 0.00 0.00 0.00 32 1011.5
20260505065539 73 155 3.0 6.0 0.00 0.00 0.00 32 1011.5
20260505065039 73 153 7.0 10.0 0.00 0.00 0.00 31 1011.5
20260505064539 73 159 14.0 15.0 0.00 0.00 0.00 30 1011.5
20260505064039 73 170 6.0 7.0 0.00 0.00 0.00 31 1011.5
20260505063539 72 184 11.0 13.0 0.00 0.00 0.00 29 1011.9
20260505063039 72 226 6.0 10.0 0.00 0.00 0.00 31 1011.9
20260505062539 71 180 9.0 11.0 0.00 0.00 0.00 29 1011.9
20260505062039 71 178 10.0 10.0 0.00 0.00 0.00 30 1011.9
20260505061645 71 149 7.0 11.0 0.00 0.00 0.00 31 1011.9
20260505061145 71 179 7.0 10.0 0.00 0.00 0.00 32 1011.9
20260505060645 70 139 7.0 10.0 0.00 0.00 0.00 31 1011.9
20260505060145 70 180 9.0 17.0 0.00 0.00 0.00 32 1011.9
20260505055645 70 255 4.0 5.0 0.00 0.00 0.00 34 1011.9
20260505054645 69 172 6.0 8.0 0.00 0.00 0.00 35 1011.9
20260505054145 67 182 2.0 7.0 0.00 0.00 0.00 38 1011.9
20260505053645 66 167 4.0 4.0 0.00 0.00 0.00 43 1011.9
20260505053145 63 268 3.0 5.0 0.00 0.00 0.00 60 1011.9
20260505052645 62 351 0.0 1.0 0.00 0.00 0.00 65 1012.2
20260505052145 60 0 1.0 1.0 0.00 0.00 0.00 66 1012.2
20260505051645 60 336 0.0 0.0 0.00 0.00 0.00 66 1012.2
20260505051145 58 336 0.0 1.0 0.00 0.00 0.00 67 1011.9
20260505050645 57 339 1.0 2.0 0.00 0.00 0.00 69 1011.9
20260505050145 56 338 0.0 1.0 0.00 0.00 0.00 70 1012.2
20260505041645 47 342 0.0 0.0 0.00 0.00 0.00 86 1012.2
20260505041145 47 341 0.0 0.0 0.00 0.00 0.00 87 1012.2
20260505040645 46 341 0.0 0.0 0.00 0.00 0.00 89 1012.2
20260505040145 45 342 0.0 0.0 0.00 0.00 0.00 91 1012.2
20260505035645 44 341 0.0 0.0 0.00 0.00 0.00 91 1012.2
20260505035145 44 341 0.0 0.0 0.00 0.00 0.00 92 1012.2
20260505034645 44 342 0.0 0.0 0.00 0.00 0.00 93 1012.2
20260505034145 44 341 0.0 0.0 0.00 0.00 0.00 93 1012.2
20260505033645 43 342 0.0 0.0 0.00 0.00 0.00 93 1012.2
20260505033145 44 342 0.0 0.0 0.00 0.00 0.00 93 1012.2
20260505032645 44 342 1.0 1.0 0.00 0.00 0.00 92 1012.2
20260505032145 44 342 0.0 0.0 0.00 0.00 0.00 92 1012.2
20260505031645 44 343 0.0 0.0 0.00 0.00 0.00 92 1012.2
20260505031145 44 345 0.0 1.0 0.00 0.00 0.00 92 1012.2
20260505030645 44 342 0.0 0.0 0.00 0.00 0.00 92 1012.2
20260505030145 44 346 1.0 1.0 0.00 0.00 0.00 91 1012.5
20260505025645 44 348 1.0 1.0 0.00 0.00 0.00 90 1012.5
20260505025145 44 347 0.0 1.0 0.00 0.00 0.00 90 1012.5
20260505024645 44 346 1.0 1.0 0.00 0.00 0.00 92 1012.5
20260505024145 44 349 1.0 1.0 0.00 0.00 0.00 93 1012.5
20260505023645 44 357 2.0 2.0 0.00 0.00 0.00 92 1012.5
20260505023145 44 352 1.0 1.0 0.00 0.00 0.00 92 1012.5
20260505022645 44 356 2.0 2.0 0.00 0.00 0.00 91 1012.5
20260505022145 44 352 1.0 2.0 0.00 0.00 0.00 90 1012.5
20260505021645 45 359 2.0 2.0 0.00 0.00 0.00 92 1012.5
20260505021145 44 342 1.0 1.0 0.00 0.00 0.00 92 1012.5
20260505020645 45 347 1.0 1.0 0.00 0.00 0.00 91 1012.5
20260505020145 45 344 1.0 1.0 0.00 0.00 0.00 92 1012.5
20260505015645 45 342 0.0 0.0 0.00 0.00 0.00 91 1012.5
20260505015145 45 345 0.0 0.0 0.00 0.00 0.00 87 1012.5
20260505014645 45 347 0.0 0.0 0.00 0.00 0.00 87 1012.5
20260505014145 45 343 0.0 0.0 0.00 0.00 0.00 91 1012.5
20260505013645 46 343 0.0 0.0 0.00 0.00 0.00 92 1012.5
20260505013145 46 345 0.0 0.0 0.00 0.00 0.00 90 1012.5
20260505012645 46 343 0.0 1.0 0.00 0.00 0.00 92 1013.2
20260505012144 46 345 0.0 0.0 0.00 0.00 0.00 92 1013.2
20260505011645 46 345 0.0 0.0 0.00 0.00 0.00 89 1013.2
20260505011145 46 347 0.0 0.0 0.00 0.00 0.00 91 1012.5